Martinsburg, WV

10:37 PM EST on November 21, 2019 (GMT -0500)
Eastern W Va Regional-Shepherd

Weather History for KMRB - September, 2019

Change the Weather History Date:

Saturday, September 14, 2019

  Actual Average Record
Temperature  
Mean Temperature 72 °F 66 °F  
Max Temperature 81 °F 78 °F 100 °F (1931)
Min Temperature 64 °F 55 °F 34 °F (1964)
Degree Days  
Heating Degree Days 0 2  
Month to date heating degree days 0 18  
Since 1 July heating degree days 1 25  
Cooling Degree Days 8 3  
Month to date cooling degree days 93 63  
Year to date cooling degree days 1144 855  
Growing Degree Days 22 (Base 50)    
Moisture  
Dew Point 64 °F    
Average Humidity 80    
Maximum Humidity 100    
Minimum Humidity 62    
Precipitation  
Precipitation 0.01 in 0.13 in 3.64 in (1966)
Month to date precipitation 0.17 1.62  
Year to date precipitation 33.69 27.86  
Sea Level Pressure  
Sea Level Pressure 30.21 in    
Wind  
Wind Speed 5 mph ()    
Max Wind Speed 15 mph    
Max Gust Speed 20 mph    
Visibility 9.9 miles    
Events      
T = Trace of Precipitation, MM = Missing Value Source: Averaged Metar Reports

Daily Weather History Graph

Daily Weather History Graph

Search for Another Location

Airport or City:

Astronomy

Sep. 14, 2019 Rise Set
Actual Time 6:52 AM EDT 7:22 PM EDT
Civil Twilight 6:25 AM EDT 7:49 PM EDT
Nautical Twilight 5:53 AM EDT 8:21 PM EDT
Astronomical Twilight 5:20 AM EDT 8:53 PM EDT
Moon 8:02 PM EDT (9/14) 7:03 AM EDT (9/14)
Length of Visible Light 13h 24m
Length of Day
12h 30m
Full, 100% of the Moon is Illuminated
Sep 14
Full
Sep 21
Last Quarter
Sep 28
New
Oct 5
First Quarter
Oct 13
Full

Hourly Weather History & Observations

Time (EDT) Temp. Heat Index Dew Point Humidity Pressure Visibility Wind Dir Wind Speed Gust Speed Precip Events Conditions
12:53 AM 66.0 °F - 59.0 °F 78% 30.32 in 10.0 mi SSE 5.8 mph - N/A   Overcast
1:53 AM 66.0 °F - 59.0 °F 78% 30.30 in 10.0 mi SSE 6.9 mph - N/A   Overcast
2:53 AM 64.9 °F - 59.0 °F 81% 30.28 in 10.0 mi SE 6.9 mph - N/A   Overcast
3:53 AM 64.9 °F - 60.1 °F 84% 30.26 in 10.0 mi SSE 5.8 mph - N/A   Overcast
4:53 AM 64.9 °F - 60.1 °F 84% 30.26 in 10.0 mi SE 4.6 mph - N/A   Overcast
5:53 AM 64.9 °F - 60.1 °F 84% 30.26 in 10.0 mi SSE 4.6 mph - N/A   Overcast
6:53 AM 64.9 °F - 60.1 °F 84% 30.27 in 10.0 mi South 6.9 mph - N/A   Overcast
7:53 AM 66.0 °F - 60.1 °F 81% 30.27 in 10.0 mi South 6.9 mph - N/A   Overcast
8:53 AM 66.0 °F - 61.0 °F 84% 30.27 in 10.0 mi SSE 9.2 mph - N/A   Overcast
9:53 AM 68.0 °F - 62.1 °F 81% 30.27 in 10.0 mi SSE 6.9 mph - N/A   Overcast
10:53 AM 72.0 °F - 63.0 °F 73% 30.25 in 10.0 mi South 10.4 mph - N/A   Overcast
11:53 AM 73.0 °F - 64.0 °F 73% 30.23 in 10.0 mi South 8.1 mph - N/A   Overcast
12:53 PM 75.9 °F - 64.9 °F 69% 30.20 in 10.0 mi SE 6.9 mph - N/A   Overcast
1:53 PM 80.1 °F 82.1 °F 66.0 °F 62% 30.17 in 10.0 mi SE 6.9 mph - N/A   Partly Cloudy
2:53 PM 80.1 °F 82.3 °F 66.9 °F 64% 30.15 in 10.0 mi SE 10.4 mph - N/A   Clear
3:53 PM 80.1 °F 82.3 °F 66.9 °F 64% 30.13 in 10.0 mi SE 8.1 mph - N/A   Partly Cloudy
4:53 PM 77.0 °F - 66.9 °F 71% 30.13 in 10.0 mi SE 4.6 mph - N/A   Scattered Clouds
5:53 PM 75.9 °F - 70.0 °F 82% 30.15 in 10.0 mi SSE 5.8 mph - 0.01 in   Scattered Clouds
6:53 PM 75.0 °F - 68.0 °F 79% 30.13 in 10.0 mi SSE 4.6 mph - N/A   Clear
7:53 PM 72.0 °F - 66.9 °F 84% 30.15 in 10.0 mi Calm Calm - N/A   Clear
8:53 PM 69.1 °F - 66.0 °F 90% 30.16 in 10.0 mi Calm Calm - N/A   Clear
9:53 PM 68.0 °F - 66.9 °F 96% 30.17 in 10.0 mi Calm Calm - N/A   Partly Cloudy
10:53 PM 66.9 °F - 66.0 °F 97% 30.16 in 9.0 mi Calm Calm - N/A   Partly Cloudy
11:53 PM 66.0 °F - 64.9 °F 96% 30.15 in 9.0 mi Calm Calm - N/A   Clear